Location: Home
(42.5358°N, 72.7383°W)
Time: 00:07:33
(UTC-05:00)

NUDT-PHONESAT - Visible Passes

Search period start: 25 January 2022 00:00
Search period end: 04 February 2022 00:00
Orbit: 469 x 486 km, 97.4° (Epoch: 24 January)

Date Brightness Start Highest point End Pass type
(mag) Time Alt. Az. Time Alt. Az. Time Alt. Az.
25 Jan ? 05:40:09 10° ENE 05:41:06 11° E 05:42:03 10° ESE visible
25 Jan ? 17:46:26 10° SSE 17:49:55 69° ENE 17:53:25 10° N visible
26 Jan ? 18:54:43 10° SW 18:56:54 16° W 18:59:05 10° NW visible
27 Jan ? 06:18:25 10° NNE 06:21:40 33° E 06:24:54 10° SSE visible
27 Jan ? 18:27:03 10° SSW 18:30:15 32° W 18:33:27 10° NNW visible
28 Jan ? 05:52:44 10° NE 05:55:01 16° E 05:57:16 10° SE visible
28 Jan ? 18:00:10 10° S 18:03:40 76° WSW 18:07:10 10° NNW visible
29 Jan ? 17:33:48 10° SSE 17:37:10 45° ENE 17:40:32 10° N visible
29 Jan ? 19:09:58 10° WSW 19:10:42 10° W 19:11:27 10° WNW visible
30 Jan ? 06:31:55 10° NNE 06:35:22 51° E 06:38:50 10° S visible
30 Jan ? 18:41:09 10° SSW 18:43:56 22° W 18:46:45 10° NW visible
31 Jan ? 06:05:48 10° NE 06:08:42 23° E 06:11:35 10° SSE visible
31 Jan ? 18:13:51 10° S 18:17:15 49° W 18:20:41 10° NNW visible
01 Feb ? 05:40:49 10° ENE 05:41:54 11° E 05:43:00 10° ESE visible
01 Feb ? 17:47:10 10° SSE 17:50:38 70° ENE 17:54:08 10° N visible
02 Feb ? 18:55:20 10° SW 18:57:29 15° W 18:59:38 10° NW visible
03 Feb ? 06:18:56 10° NNE 06:22:12 34° E 06:25:27 10° SSE visible
03 Feb ? 18:27:31 10° SSW 18:30:41 32° W 18:33:54 10° NNW visible
